MDT,Max TemperatureF,Mean TemperatureF,Min TemperatureF,Max Dew PointF,MeanDew PointF,Min DewpointF,Max Humidity, Mean Humidity, Min Humidity, Max Sea Level PressureIn, Mean Sea Level PressureIn, Min Sea Level PressureIn, Max VisibilityMiles, Mean VisibilityMiles, Min VisibilityMiles, Max Wind SpeedMPH, Mean Wind SpeedMPH, Max Gust SpeedMPH,PrecipitationIn, CloudCover, Events, WindDirDegrees
2013-9-1,86,64,41,46,41,28,93,56,12,30.09,29.98,29.88,9,9,4,15,9,24,0.00,0,,259
2013-9-2,80,65,50,52,47,39,82,58,24,29.99,29.94,29.87,9,9,9,17,9,25,0.00,6,Rain-Thunderstorm,284
2013-9-3,71,60,50,59,52,46,94,70,46,30.12,30.07,29.98,9,9,9,13,6,,0.00,5,Rain-Thunderstorm,160
2013-9-4,84,67,50,55,51,48,94,63,29,30.12,30.07,30.02,9,9,9,13,9,25,0.00,0,,263
2013-9-5,78,66,53,59,55,48,88,67,44,30.09,30.02,29.95,9,9,9,14,7,18,0.00,5,Rain-Thunderstorm,274
2013-9-6,68,64,59,57,56,52,94,81,56,30.16,30.09,29.99,9,8,3,14,8,18,0.00,8,Rain,332
2013-9-7,59,57,55,55,55,54,100,93,82,30.19,30.16,30.11,9,7,2,13,6,17,0.00,8,Rain,59
2013-9-8,68,60,53,55,53,46,100,88,46,30.12,30.01,29.89,9,6,0,15,4,17,0.00,7,Fog-Rain-Thunderstorm,265
2013-9-9,75,65,55,50,49,46,82,61,36,29.99,29.93,29.87,9,9,9,22,12,29,0.00,2,,269
2013-9-10,78,61,44,52,47,41,93,65,26,30.17,30.06,29.98,9,9,9,12,7,20,0.00,0,,256
2013-9-11,77,62,46,50,47,43,93,64,29,30.32,30.27,30.19,9,8,2,9,7,18,0.00,0,,180
2013-9-12,80,62,44,54,48,41,94,59,24,30.28,30.09,29.99,9,8,2,12,7,,0.00,0,Thunderstorm,230
2013-9-13,84,66,48,50,47,45,88,56,26,29.98,29.90,29.86,9,9,9,14,9,22,0.00,0,Thunderstorm,315
2013-9-14,71,60,48,54,49,45,93,69,46,30.16,30.10,29.97,9,9,9,10,8,,0.00,1,Thunderstorm,144
2013-9-15,78,60,41,50,46,41,100,69,28,30.13,30.00,29.83,9,9,9,10,6,22,0.00,0,,263
2013-9-16,75,62,50,52,47,41,88,59,31,29.81,29.73,29.68,9,9,9,31,12,39,0.00,2,Rain,255
2013-9-17,69,60,51,45,40,36,71,50,28,29.78,29.69,29.63,9,8,2,22,12,32,0.00,1,,273
2013-9-18,53,42,32,46,38,32,100,93,67,30.18,29.93,29.62,9,7,1,21,10,28,0.00,8,Rain-Snow,275
2013-9-19,59,48,37,43,38,34,100,74,39,30.19,30.14,30.05,9,9,9,25,10,47,0.00,1,,265
2013-9-20,71,58,44,39,36,34,76,49,25,30.02,29.85,29.70,9,9,9,22,14,31,0.00,0,,265
2013-9-21,71,55,39,41,37,34,87,56,28,29.69,29.61,29.52,9,9,9,29,13,36,0.00,2,,268
2013-9-22,62,54,46,39,37,34,71,55,34,29.65,29.59,29.51,9,9,9,29,17,36,0.00,1,,250
2013-9-23,55,50,44,39,36,34,76,60,44,29.85,29.72,29.55,9,9,8,45,22,60,0.00,2,,260
2013-9-24,53,46,39,43,38,34,100,70,47,29.88,29.82,29.78,9,9,9,17,10,24,0.00,6,Rain,246
2013-9-25,44,40,37,41,38,32,100,90,66,30.05,29.92,29.81,9,8,5,17,12,23,0.00,8,Rain,334
2013-9-26,50,44,39,36,32,27,81,67,40,30.12,30.07,30.02,9,9,9,14,11,22,0.00,6,,295
2013-9-27,51,43,35,32,30,27,81,61,38,30.01,29.87,29.81,9,9,9,33,17,47,0.00,4,,260
2013-9-28,57,48,39,41,36,32,81,65,51,29.82,29.69,29.45,9,9,9,25,17,36,0.00,4,,253
2013-9-29,53,48,42,45,38,30,87,67,41,29.56,29.36,29.23,9,9,6,43,30,56,0.00,4,Rain,251
2013-9-30,50,44,37,36,30,23,87,56,37,29.73,29.44,29.31,9,9,9,59,21,71,0.00,2,Rain,244